Helena Regional Airport
KHLN : now visible

Airfield :











YOU CAN JOIN US ON...

 
LOGIN :

Register | Disclaimer

   EN    FR    IT 

 









Legend :    VFR   Marginal VFR   IFR   Intensive IFR   Very Intensive IFR
Visi :
Ceiling :
>= 8 km
>= 3000ft
5 to 8 km
1000 to 3000 ft
1500m to 5 km
500 to 1000 ft
800 to 1500m
200 to 500 ft
< 800m
< 200 ft
Symbols :   Thunderstorms  Fog  Heavy snow  Heavy precipitations  Wind > 20 kt






- Airport Elevation : 3877 ft
- IATA code : HLN


KHLN - Helena Regional

CURRENT METAR :
  • 221253Z 24006KT 10SM BKN095 M01/M07 A2979 RMK AO2 SLP109 T10061072

EXPIRED METARs :
  • 221153Z AUTO 26003KT 10SM CLR M01/M08 A2974 RMK AO2 SLP091 T10061078 10044 21006 56005
  • 221053Z AUTO 00000KT 10SM CLR 01/M08 A2975 RMK AO2 SLP093 T00061083

TAF KHLN
Valid from the 22 at 12:00 until the 23 at 12:00 UTC


221125Z 2212/2312 VRB05KT P6SM SKC
FM221500 31007KT P6SM VCSH SCT015 BKN025
FM222000 35014G24KT P6SM VCSH SCT010 BKN025
FM230200 34011G22KT 4SM -SN BR OVC015
FM230500 34010G19KT 2SM -SN BR OVC008
KZLC FIR / North America



MET'MAP, your aeronautical weather chart ! - Copyright ORBIFLY December 2007 - Disclaimer

ORBIFLY MET'MAP TEAM :

Programming & Development : Alexandra Zaïnal
Concept & original design : Baudouin d'Aumeries
Assistance for programming : Marc-Olivier Méhu
Technical & hardware support : Manuel Goepfert

Contact : metmap@orbifly.com




SOURCES & CREDITS :

   NOAA       Earth
Advisory